{"data":{"norad_id":67980,"epoch":"2026-09-19T23:01:25.135680Z","epoch_age_seconds":106346,"freshness":"FRESH","line1":"1 67980U 26038V   26262.95931870  .00014989  00000+0  46562-3 0  9995","line2":"2 67980  97.2865 271.3541 0001853  90.6740 269.4715 15.33449879 33019","mean_motion":15.33449879,"eccentricity":0.0001853,"inclination_deg":97.2865,"raan_deg":271.3541,"arg_perigee_deg":90.674,"mean_anomaly_deg":269.4715,"bstar":0.00046562,"rev_number":3301,"period_min":93.905905874084,"perigee_km":464.26052679885,"apogee_km":466.79678929173,"semimajor_km":6843.6656580453,"source":"CELESTRAK","updated_at":"2026-09-20T09:00:43.733127Z"}}